Change the Weather History Date:

Tuesday, January 21, 2014

  Actual Average Record
Temperature  
Mean Temperature 57 °F -  
Max Temperature 66 °F 49 °F 66 °F (2014)
Min Temperature 48 °F 38 °F 28 °F (2006)
Degree Days  
Heating Degree Days 8    
Growing Degree Days 7 (Base 50)    
Moisture  
Dew Point 39 °F    
Average Humidity 54    
Maximum Humidity 67    
Minimum Humidity 24    
Precipitation  
Precipitation 0.00 in - - ()
Sea Level Pressure  
Sea Level Pressure 30.00 in    
Wind  
Wind Speed 5 mph ()    
Max Wind Speed 17 mph    
Max Gust Speed -    
Visibility 7.9 miles    
Events      
Averages and records for this station are not official NWS values.
T = Trace of Precipitation, MM = Missing Value Source: Averaged Metar Reports

Daily Weather History Graph

Daily Weather History Graph

Search for Another Location

Airport or City:

Trip Planner

Search our weather history database for the weather conditions in past years. The results will help you decide how hot, cold, wet, or windy it might be!

Date:

Astronomy

Jan. 21, 2014 Rise Set
Actual Time 6:40 AM EET 4:24 PM EET
Civil Twilight 6:10 AM EET 4:53 PM EET
Nautical Twilight 5:37 AM EET 5:27 PM EET
Astronomical Twilight 5:04 AM EET 6:00 PM EET
Moon 9:38 PM EET (1/21) 8:56 AM EET (1/21)
Length of Visible Light 10h 43m
Length of Day
9h 43m
Waning Gibbous, 77% of the Moon is Illuminated
Jan 21
Waning Gibbous
Jan 24
Last Quarter
Jan 30
New
Feb 6
First Quarter
Feb 15
Full

Hourly Weather History & Observations

Time (EET) Temp. Dew Point Humidity Pressure Visibility Wind Dir Wind Speed Gust Speed Precip Events Conditions
12:20 AM 55.4 °F 37.4 °F 51% 29.98 in - Variable 1.2 mph - N/A   Clear
12:50 AM 55.4 °F 37.4 °F 51% 29.98 in - SW 4.6 mph - N/A   Clear
1:20 AM 57.2 °F 37.4 °F 48% 29.98 in - WSW 6.9 mph - N/A   Clear
1:50 AM 57.2 °F 37.4 °F 48% 29.98 in - SSW 6.9 mph - N/A   Clear
2:00 AM 57 °F 36 °F 34% 29.98 in 12 mi SSW 6.9 mph - -   Clear
2:20 AM 53.6 °F 37.4 °F 54% 29.98 in - Variable 1.2 mph - N/A   Clear
2:50 AM 53.6 °F 35.6 °F 51% 29.98 in - SSE 3.5 mph - N/A   Clear
3:20 AM 53.6 °F 37.4 °F 54% 29.98 in - Variable 2.3 mph - N/A   Clear
3:50 AM 53.6 °F 35.6 °F 51% 29.98 in - South 3.5 mph - N/A   Clear
4:20 AM 53.6 °F 35.6 °F 51% 29.98 in - Variable 1.2 mph - N/A   Clear
4:50 AM 53.6 °F 35.6 °F 51% 30.01 in - West 17.3 mph - N/A   Clear
5:00 AM 54 °F 35 °F 36% 30.02 in 12 mi West 17.3 mph - -   Clear
5:20 AM 51.8 °F 37.4 °F 58% 30.01 in - WNW 6.9 mph - N/A   Clear
5:50 AM 48.2 °F 37.4 °F 66% 30.04 in - West 9.2 mph - N/A   Clear
6:20 AM 50.0 °F 37.4 °F 62% 30.04 in - Variable 2.3 mph - N/A   Clear
6:50 AM 50.0 °F 39.2 °F 66% 30.04 in - ESE 6.9 mph - N/A   Clear
7:20 AM 51.8 °F 39.2 °F 62% 30.04 in - South 4.6 mph - N/A   Clear
7:50 AM 51.8 °F 39.2 °F 62% 30.04 in - Calm Calm - N/A   Clear
8:00 AM 53 °F 40 °F 50% 30.06 in 6 mi Calm Calm - -   Clear
8:20 AM 53.6 °F 39.2 °F 58% 30.04 in - Calm Calm - N/A   Clear
8:50 AM 55.4 °F 41.0 °F 58% 30.04 in 4.3 mi Calm Calm - N/A   Unknown
9:20 AM 57.2 °F 41.0 °F 55% 30.04 in 5.6 mi Variable 1.2 mph - N/A   Unknown
9:50 AM 59.0 °F 41.0 °F 51% 30.04 in - Calm Calm - N/A   Clear
10:20 AM 57.2 °F 41.0 °F 55% 30.04 in - Calm Calm - N/A   Clear
10:50 AM 57.2 °F 41.0 °F 55% 30.04 in - East 5.8 mph - N/A   Clear
11:00 AM 57 °F 41 °F 43% 30.04 in 12 mi East 5.8 mph - -   Clear
11:20 AM 59.0 °F 42.8 °F 55% 30.01 in - East 4.6 mph - N/A   Clear
11:50 AM 59.0 °F 41.0 °F 51% 30.01 in - East 6.9 mph - N/A   Clear
12:20 PM 59.0 °F 41.0 °F 51% 30.01 in - East 6.9 mph - N/A   Clear
12:50 PM 59.0 °F 41.0 °F 51% 29.98 in - East 9.2 mph - N/A   Clear
1:20 PM 59.0 °F 41.0 °F 51% 29.98 in - East 9.2 mph - N/A   Clear
1:50 PM 59.0 °F 41.0 °F 51% 29.98 in - East 9.2 mph - N/A   Clear
2:00 PM 60 °F 41 °F 39% 30.00 in 12 mi East 9.2 mph - -  
2:20 PM 59.0 °F 42.8 °F 55% 29.98 in - East 6.9 mph - N/A   Clear
2:50 PM 59.0 °F 41.0 °F 51% 29.98 in - East 6.9 mph - N/A   Clear
3:20 PM 57.2 °F 42.8 °F 59% 29.98 in - East 5.8 mph - N/A   Clear
3:50 PM 55.4 °F 44.6 °F 67% 30.01 in - East 4.6 mph - N/A   Clear
4:20 PM 53.6 °F 42.8 °F 67% 30.01 in - ESE 6.9 mph - N/A   Clear
4:50 PM 53.6 °F 42.8 °F 67% 30.01 in - East 11.5 mph - N/A   Clear
5:00 PM 53 °F 42 °F 57% 30.01 in 9 mi East 11.5 mph - -  
5:20 PM 57.2 °F 39.2 °F 51% 30.01 in - SE 9.2 mph - N/A   Clear
5:50 PM 55.4 °F 39.2 °F 54% 30.01 in - ESE 8.1 mph - N/A   Clear
6:20 PM 53.6 °F 39.2 °F 58% 30.01 in - ESE 5.8 mph - N/A   Clear
6:50 PM 51.8 °F 39.2 °F 62% 29.98 in - Calm Calm - N/A   Clear
7:00 PM 51.8 °F 39.2 °F 62% 29.98 in - Calm Calm - N/A   Smoke
7:20 PM 51.8 °F 39.2 °F 62% 29.98 in 5.0 mi Calm Calm - N/A   Unknown
7:50 PM 51.8 °F 39.2 °F 62% 29.98 in - SSE 3.5 mph - N/A   Clear
8:00 PM 52 °F 39 °F 50% 29.98 in 6 mi SSE 3.5 mph - -  
8:20 PM 51.8 °F 39.2 °F 62% 29.98 in - SE 3.5 mph - N/A   Clear
8:50 PM 51.8 °F 39.2 °F 62% 29.95 in - Variable 2.3 mph - N/A   Clear
9:20 PM 51.8 °F 39.2 °F 62% 29.95 in 5.0 mi Calm Calm - N/A   Unknown
9:50 PM 51.8 °F 37.4 °F 58% 29.95 in - Calm Calm - N/A   Clear
10:20 PM 53.6 °F 37.4 °F 54% 29.95 in - Calm Calm - N/A   Clear
10:50 PM 53.6 °F 37.4 °F 54% 29.92 in - Variable 6.9 mph - N/A   Clear
11:00 PM 53 °F 38 °F 45% 29.95 in 6 mi East 6.9 mph - -  
11:20 PM 66.2 °F 30.2 °F 26% 29.92 in - SSW 17.3 mph - N/A   Clear
11:50 PM 66.2 °F 28.4 °F 24% 29.92 in - SSW 16.1 mph - N/A   Clear